Skagway, AK

4:17 AM AKDT on July 28, 2017 (GMT -0800)
Skagway

Weather History for PAGY - January, 2011

Change the Weather History Date:

Tuesday, January 11, 2011

  Actual Average Record
Temperature  
Mean Temperature 24 °F -  
Max Temperature 28 °F 27 °F 46 °F (1997)
Min Temperature 19 °F 20 °F -12 °F (1971)
Degree Days  
Heating Degree Days 42    
Moisture  
Dew Point 8 °F    
Average Humidity 46    
Maximum Humidity 51    
Minimum Humidity 42    
Precipitation  
Precipitation 0.00 in - - ()
Sea Level Pressure  
Sea Level Pressure 30.50 in    
Wind  
Wind Speed 21 mph (NE)    
Max Wind Speed 26 mph    
Max Gust Speed 39 mph    
Visibility 10 miles    
Events      
Averages and records for this station are not official NWS values.
T = Trace of Precipitation, MM = Missing Value Source: NWS Daily Summary

Daily Weather History Graph

Daily Weather History Graph

Search for Another Location

Airport or City:

Trip Planner

Search our weather history database for the weather conditions in past years. The results will help you decide how hot, cold, wet, or windy it might be!

Date:

Astronomy

Jan. 11, 2011 Rise Set
Actual Time 8:50 AM AKST 3:28 PM AKST
Civil Twilight 7:57 AM AKST 4:21 PM AKST
Nautical Twilight 7:03 AM AKST 5:15 PM AKST
Astronomical Twilight 6:14 AM AKST 6:04 PM AKST
Moon 10:09 AM AKST (1/11) No Moon Set
Length of Visible Light 8h 23m
Length of Day
6h 38m
Waxing Crescent, 44% of the Moon is Illuminated
Jan 11
Waxing Crescent
Jan 12
First Quarter
Jan 19
Full
Jan 26
Last Quarter
Feb 2
New

Hourly Weather History & Observations

Time (AKST) Temp. Windchill Dew Point Humidity Pressure Visibility Wind Dir Wind Speed Gust Speed Precip Events Conditions
12:53 AM 28.0 °F 14.6 °F 12.0 °F 51% 30.48 in 10.0 mi NNE 20.7 mph 31.1 mph N/A   Mostly Cloudy
1:53 AM 28.9 °F 15.8 °F 12.0 °F 49% 30.48 in 10.0 mi NNE 20.7 mph 32.2 mph N/A   Overcast
2:53 AM 28.0 °F 14.6 °F 10.9 °F 49% 30.49 in 10.0 mi NNE 20.7 mph 35.7 mph N/A   Mostly Cloudy
3:53 AM 28.0 °F 13.0 °F 10.0 °F 47% 30.49 in 10.0 mi NNE 26.5 mph 39.1 mph N/A   Overcast
4:53 AM 28.0 °F 15.3 °F 12.0 °F 51% 30.51 in 10.0 mi NNE 18.4 mph 31.1 mph N/A   Overcast
5:53 AM 28.0 °F 15.7 °F 10.9 °F 49% 30.51 in 10.0 mi North 17.3 mph 25.3 mph N/A   Mostly Cloudy
6:53 AM 28.0 °F 13.6 °F 10.0 °F 47% 30.50 in 10.0 mi NE 24.2 mph 29.9 mph N/A   Scattered Clouds
7:53 AM 28.9 °F 17.7 °F 10.9 °F 47% 30.52 in 10.0 mi NNE 15.0 mph 25.3 mph N/A   Mostly Cloudy
8:53 AM 28.9 °F 17.3 °F 10.0 °F 45% 30.52 in 10.0 mi NNE 16.1 mph 24.2 mph N/A   Overcast
9:53 AM 28.9 °F 16.5 °F 10.0 °F 45% 30.52 in 10.0 mi NNE 18.4 mph 26.5 mph N/A   Overcast
10:53 AM 28.9 °F 15.4 °F 10.0 °F 45% 30.53 in 7.0 mi NE 21.9 mph 28.8 mph N/A   Overcast
11:53 AM 28.0 °F 13.6 °F 10.0 °F 47% 30.51 in 10.0 mi NE 24.2 mph 31.1 mph N/A   Clear
12:53 PM 28.0 °F 14.3 °F 10.0 °F 47% 30.51 in 10.0 mi NE 21.9 mph 32.2 mph N/A   Overcast
1:53 PM 28.0 °F 14.3 °F 8.1 °F 43% 30.51 in 10.0 mi NE 21.9 mph 35.7 mph N/A   Overcast
2:53 PM 27.0 °F 12.5 °F 7.0 °F 43% 30.50 in 10.0 mi NE 23.0 mph 28.8 mph N/A   Overcast
3:53 PM 26.1 °F 11.3 °F 8.1 °F 47% 30.51 in 10.0 mi NE 23.0 mph 33.4 mph N/A   Overcast
4:53 PM 25.0 °F 9.2 °F 5.0 °F 43% 30.51 in 10.0 mi NE 25.3 mph 34.5 mph N/A   Overcast
5:53 PM 24.1 °F 9.0 °F 6.1 °F 46% 30.50 in 10.0 mi NE 21.9 mph 27.6 mph N/A   Overcast
6:53 PM 23.0 °F 7.2 °F 5.0 °F 46% 30.49 in 10.0 mi NE 23.0 mph 29.9 mph N/A   Scattered Clouds
7:53 PM 23.0 °F 8.0 °F 3.9 °F 44% 30.48 in 10.0 mi NNE 20.7 mph 29.9 mph N/A   Mostly Cloudy
8:53 PM 21.9 °F 7.3 °F 3.0 °F 44% 30.48 in 10.0 mi NE 18.4 mph 33.4 mph N/A   Overcast
9:53 PM 21.0 °F 5.7 °F 1.9 °F 44% 30.49 in 10.0 mi NE 19.6 mph 27.6 mph N/A   Overcast
10:53 PM 19.9 °F 6.2 °F 1.9 °F 46% 30.48 in 10.0 mi NNE 15.0 mph - N/A   Overcast
11:53 PM 19.9 °F 7.3 °F -0.0 °F 42% 30.48 in 10.0 mi NNE 12.7 mph 21.9 mph N/A   Overcast